This is the latest recevied weather packets stored in our database for station/object OK1FET-14. If no packets are shown the sender has not sent any weather packets the latest 1 day(s).
| Time | Temp. | Humidity | Pressure | Rain* | Wind** | Luminosity | Snow |
|---|---|---|---|---|---|---|---|
| 1778072046 | 22.78° C | 59% | 1007.5 hPa | - | - | - | - |
| 1778072046 | 22.78° C | 59% | 1007.5 hPa | - | - | - | - |
| 1778071765 | 20.56° C | 50% | 1007.5 hPa | - | - | - | - |
| 1778071484 | 19.44° C | 54% | 1007.6 hPa | - | - | - | - |
| 1778069518 | 19.44° C | 54% | 1007.9 hPa | - | - | - | - |
| 1778069518 | 19.44° C | 54% | 1007.9 hPa | - | - | - | - |
| 1778069518 | 19.44° C | 54% | 1007.9 hPa | - | - | - | - |
| 1778069241 | 19.44° C | 55% | 1007.8 hPa | - | - | - | - |
| 1778069241 | - | - | - | - | - | - | - |
| 1778069241 | 19.44° C | 55% | 1007.8 hPa | - | - | - | - |
| 1778069241 | 19.44° C | 55% | 1007.8 hPa | - | - | - | - |
| 1778069237 | 19.44° C | 55% | 1007.8 hPa | - | - | - | - |
| 1778069237 | 19.44° C | 55% | 1007.8 hPa | - | - | - | - |
| 1778069237 | 19.44° C | 55% | 1007.8 hPa | - | - | - | - |
| 1778069237 | 19.44° C | 55% | 1007.8 hPa | - | - | - | - |
| 1778068956 | 18.89° C | 55% | 1007.8 hPa | - | - | - | - |
| 1778068680 | 19.44° C | 54% | 1007.7 hPa | - | - | - | - |
| 1778068118 | 18.33° C | 59% | 1007.8 hPa | - | - | - | - |
| 1778068118 | 18.33° C | 59% | 1007.8 hPa | - | - | - | - |
| 1778068114 | 18.33° C | 59% | 1007.8 hPa | - | - | - | - |
| 1778068114 | 18.33° C | 59% | 1007.8 hPa | - | - | - | - |
| 1778067838 | 17.22° C | 62% | 1008 hPa | - | - | - | - |
| 1778067837 | 17.22° C | 62% | 1008 hPa | - | - | - | - |
| 1778067837 | 17.22° C | 62% | 1008 hPa | - | - | - | - |
| 1778067557 | 17.78° C | 61% | 1007.9 hPa | - | - | - | - |
* Rain since midnight (hover to see other rain measurements)
** Current wind speed in m/s (hover to see current wind gust speed)